This is the latest recevied weather packets stored in our database for station/object K5NCO. If no packets are shown the sender has not sent any weather packets the latest 10 day(s).
| Time | Temp. | Humidity | Pressure | Rain* | Wind** | Luminosity | Snow |
|---|---|---|---|---|---|---|---|
| 1777736788 | 17.78° C | 57% | 1024.6 hPa | 0 mm | - | 532 W/m² | - |
| 1777736160 | 17.78° C | 59% | 1024.7 hPa | 0 mm | - | 506 W/m² | - |
| 1777735857 | 17.78° C | 60% | 1024.7 hPa | 0 mm | - | 492 W/m² | - |
| 1777735554 | 17.78° C | 62% | 1024.6 hPa | 0 mm | - | 478 W/m² | - |
| 1777735251 | 17.22° C | 64% | 1024.8 hPa | 0 mm | - | 464 W/m² | - |
| 1777734948 | 16.67° C | 63% | 1024.6 hPa | 0 mm | - | 449 W/m² | - |
| 1777734646 | 16.67° C | 63% | 1024.5 hPa | 0 mm | - | 438 W/m² | - |
| 1777734343 | 16.67° C | 66% | 1024.5 hPa | 0 mm | - | 424 W/m² | - |
| 1777734039 | 16.67° C | 65% | 1024.4 hPa | 0 mm | - | 409 W/m² | - |
| 1777733736 | 16.11° C | 67% | 1024.3 hPa | 0 mm | - | 392 W/m² | - |
| 1777733432 | 16.11° C | 70% | 1024.4 hPa | 0 mm | - | 382 W/m² | - |
| 1777733129 | 16.11° C | 71% | 1024.3 hPa | 0 mm | - | 367 W/m² | - |
| 1777732826 | 15.56° C | 70% | 1024.2 hPa | 0 mm | - | 352 W/m² | - |
| 1777732522 | 15.56° C | 71% | 1024.4 hPa | 0 mm | - | 337 W/m² | - |
| 1777732220 | 15.56° C | 71% | 1024.2 hPa | 0 mm | - | 322 W/m² | - |
| 1777731917 | 15.56° C | 73% | 1024.3 hPa | 0 mm | - | 307 W/m² | - |
| 1777731613 | 15.56° C | 73% | 1024.3 hPa | 0 mm | - | 289 W/m² | - |
| 1777731311 | 15° C | 75% | 1024.1 hPa | 0 mm | - | 274 W/m² | - |
| 1777731009 | 15° C | 76% | 1024.1 hPa | 0 mm | - | 259 W/m² | - |
| 1777730707 | 14.44° C | 78% | 1024.1 hPa | 0 mm | - | 241 W/m² | - |
| 1777730402 | 14.44° C | 80% | 1024 hPa | 0 mm | - | 226 W/m² | - |
| 1777730093 | 13.89° C | 83% | 1023.9 hPa | 0 mm | - | 211 W/m² | - |
| 1777729790 | 13.33° C | 85% | 1023.9 hPa | 0 mm | - | 195 W/m² | - |
| 1777729487 | 13.33° C | 84% | 1023.9 hPa | 0 mm | - | 183 W/m² | - |
| 1777729184 | 13.33° C | 85% | 1023.8 hPa | 0 mm | - | 169 W/m² | - |
* Rain latest hour (hover to see other rain measurements)
** Current wind speed in m/s (hover to see current wind gust speed)